| time (UTC) | temp F | wind direction | speed MPH | gust MPH | rain 1hr in | rain 24hr in | rain mn in | humidity % | barometer mb |
| 20260507000836 | 54 | 0 | 2.0 | 9.0 | 0.00 | 0.00 | 0.00 | 1011.8 | |
| 20260506233216 | 54 | 0 | 2.0 | 10.0 | 0.00 | 0.00 | 0.00 | 1011.7 | |
| 20260506230159 | 55 | 0 | 2.0 | 8.0 | 0.00 | 0.00 | 0.00 | 1011.8 | |
| 20260506222538 | 55 | 0 | 2.0 | 8.0 | 0.00 | 0.00 | 0.00 | 1011.6 | |
| 20260506221935 | 55 | 0 | 2.0 | 8.0 | 0.00 | 0.00 | 0.00 | 1011.7 | |
| 20260506221331 | 56 | 0 | 2.0 | 8.0 | 0.00 | 0.00 | 0.00 | 1011.6 | |
| 20260506220728 | 55 | 0 | 3.0 | 8.0 | 0.00 | 0.00 | 0.00 | 1011.5 | |
| 20260506220125 | 56 | 0 | 2.0 | 7.0 | 0.00 | 0.00 | 0.00 | 1011.5 | |
| 20260506214918 | 56 | 0 | 3.0 | 7.0 | 0.00 | 0.00 | 0.00 | 1011.4 | |
| 20260506213711 | 57 | 0 | 0.0 | 6.0 | 0.00 | 0.00 | 0.00 | 1011.3 | |
| 20260506213108 | 58 | 0 | 1.0 | 6.0 | 0.00 | 0.00 | 0.00 | 1011.1 | |
| 20260506212504 | 57 | 0 | 1.0 | 5.0 | 0.00 | 0.00 | 0.00 | 1011.1 | |
| 20260506211901 | 57 | 0 | 0.0 | 5.0 | 0.00 | 0.00 | 0.00 | 1011.1 | |
| 20260506211257 | 58 | 0 | 1.0 | 3.0 | 0.00 | 0.00 | 0.00 | 1011.1 | |
| 20260506210654 | 58 | 0 | 0.0 | 4.0 | 0.00 | 0.00 | 0.00 | 1010.9 | |
| 20260506210051 | 58 | 0 | 0.0 | 4.0 | 0.00 | 0.00 | 0.00 | 1010.8 | |
| 20260506205447 | 58 | 0 | 0.0 | 4.0 | 0.00 | 0.00 | 0.00 | 1010.8 | |
| 20260506204845 | 58 | 0 | 0.0 | 3.0 | 0.00 | 0.00 | 0.00 | 1010.9 | |
| 20260506204240 | 58 | 0 | 0.0 | 3.0 | 0.00 | 0.00 | 0.00 | 1010.8 | |
| 20260506203637 | 57 | 0 | 0.0 | 3.0 | 0.00 | 0.00 | 0.00 | 1010.9 | |
| 20260506203033 | 58 | 0 | 0.0 | 4.0 | 0.00 | 0.00 | 0.00 | 1010.9 | |
| 20260506202430 | 58 | 0 | 1.0 | 4.0 | 0.00 | 0.00 | 0.00 | 1010.9 | |
| 20260506201826 | 57 | 0 | 1.0 | 5.0 | 0.00 | 0.00 | 0.00 | 1010.2 | |
| 20260506201223 | 58 | 0 | 0.0 | 8.0 | 0.00 | 0.00 | 0.00 | 1010.2 | |
| 20260506200620 | 57 | 0 | 2.0 | 8.0 | 0.00 | 0.00 | 0.00 | 1010.7 | |
| 20260506200016 | 57 | 0 | 2.0 | 8.0 | 0.00 | 0.00 | 0.00 | 1010.6 | |
| 20260506195413 | 57 | 0 | 1.0 | 4.0 | 0.00 | 0.00 | 0.00 | 1010.4 | |
| 20260506194809 | 57 | 0 | 1.0 | 4.0 | 0.00 | 0.00 | 0.00 | 1009.8 | |
| 20260506194206 | 56 | 0 | 0.0 | 4.0 | 0.00 | 0.00 | 0.00 | 1009.7 | |
| 20260506193603 | 58 | 0 | 1.0 | 4.0 | 0.00 | 0.00 | 0.00 | 1010.3 | |
| 20260506192959 | 57 | 0 | 1.0 | 4.0 | 0.00 | 0.00 | 0.00 | 1009.7 | |
| 20260506192356 | 56 | 0 | 0.0 | 5.0 | 0.00 | 0.00 | 0.00 | 1009.8 | |
| 20260506191752 | 57 | 0 | 1.0 | 5.0 | 0.00 | 0.00 | 0.00 | 1010.2 | |
| 20260506191149 | 57 | 0 | 1.0 | 5.0 | 0.00 | 0.00 | 0.00 | 1010.1 | |
| 20260506190546 | 57 | 0 | 0.0 | 2.0 | 0.00 | 0.00 | 0.00 | 1010.1 | |
| 20260506185942 | 58 | 0 | 0.0 | 4.0 | 0.00 | 0.00 | 0.00 | 1009.9 | |
| 20260506185339 | 58 | 0 | 1.0 | 7.0 | 0.00 | 0.00 | 0.00 | 1009.8 | |
| 20260506184735 | 58 | 0 | 1.0 | 7.0 | 0.00 | 0.00 | 0.00 | 1009.8 | |
| 20260506184132 | 58 | 0 | 2.0 | 8.0 | 0.00 | 0.00 | 0.00 | 1009.7 | |
| 20260506183528 | 58 | 0 | 1.0 | 8.0 | 0.00 | 0.00 | 0.00 | 1009.5 | |
| 20260506181718 | 58 | 0 | 2.0 | 4.0 | 0.00 | 0.00 | 0.00 | 1009.3 | |
| 20260506181115 | 58 | 0 | 1.0 | 4.0 | 0.00 | 0.00 | 0.00 | 1009.3 | |
| 20260506180512 | 59 | 0 | 1.0 | 3.0 | 0.00 | 0.00 | 0.00 | 1009.2 | |
| 20260506175908 | 58 | 0 | 1.0 | 4.0 | 0.00 | 0.00 | 0.00 | 1009.0 | |
| 20260506175306 | 60 | 0 | 1.0 | 4.0 | 0.00 | 0.00 | 0.00 | 1009.1 | |
| 20260506174701 | 59 | 0 | 1.0 | 4.0 | 0.00 | 0.00 | 0.00 | 1009.0 | |
| 20260506174058 | 66 | 0 | 2.0 | 6.0 | 0.00 | 0.00 | 0.00 | 1009.1 | |
| 20260506173454 | 62 | 0 | 2.0 | 9.0 | 0.00 | 0.00 | 0.00 | 1009.0 | |
| 20260506172851 | 63 | 0 | 2.0 | 9.0 | 0.00 | 0.00 | 0.00 | 1009.0 | |
| 20260506172248 | 60 | 0 | 3.0 | 9.0 | 0.00 | 0.00 | 0.00 | 1008.9 | |
| 20260506171644 | 63 | 0 | 2.0 | 6.0 | 0.00 | 0.00 | 0.00 | 1008.9 | |
| 20260506171040 | 66 | 0 | 2.0 | 6.0 | 0.00 | 0.00 | 0.00 | 1008.7 | |
| 20260506165834 | 69 | 0 | 1.0 | 6.0 | 0.00 | 0.00 | 0.00 | 1008.3 | |
| 20260506165230 | 70 | 0 | 1.0 | 6.0 | 0.00 | 0.00 | 0.00 | 1008.2 | |
| 20260506164627 | 69 | 0 | 2.0 | 9.0 | 0.00 | 0.00 | 0.00 | 1008.2 | |
| 20260506163420 | 59 | 0 | 2.0 | 9.0 | 0.00 | 0.00 | 0.00 | 1007.8 | |
| 20260506162213 | 61 | 0 | 1.0 | 6.0 | 0.00 | 0.00 | 0.00 | 1008.2 | |
| 20260506161610 | 63 | 0 | 2.0 | 4.0 | 0.00 | 0.00 | 0.00 | 1008.4 | |
| 20260506161006 | 65 | 0 | 1.0 | 4.0 | 0.00 | 0.00 | 0.00 | 1008.3 | |
| 20260506155800 | 60 | 0 | 1.0 | 6.0 | 0.00 | 0.00 | 0.00 | 1008.4 | |
| 20260506154553 | 60 | 0 | 1.0 | 8.0 | 0.00 | 0.00 | 0.00 | 1008.3 | |
| 20260506153949 | 60 | 0 | 1.0 | 8.0 | 0.00 | 0.00 | 0.00 | 1008.4 | |
| 20260506153346 | 60 | 0 | 2.0 | 8.0 | 0.00 | 0.00 | 0.00 | 1008.5 | |
| 20260506152742 | 61 | 0 | 3.0 | 7.0 | 0.00 | 0.00 | 0.00 | 1008.5 | |
| 20260506151536 | 70 | 0 | 1.0 | 4.0 | 0.00 | 0.00 | 0.00 | 1007.3 | |
| 20260506101848 | 75 | 0 | 1.0 | 4.0 | 0.00 | 0.00 | 0.00 | 1008.6 | |
| 20260506081136 | 73 | 0 | 0.0 | 2.0 | 0.00 | 0.00 | 0.00 | 1008.6 | |
| 20260506071101 | 67 | 0 | 3.0 | 8.0 | 0.00 | 0.00 | 0.00 | 1008.8 | |
| 20260506035712 | 54 | 0 | 2.0 | 8.0 | 0.00 | 0.00 | 0.00 | 1009.1 | |
| 20260506035108 | 54 | 0 | 3.0 | 9.0 | 0.00 | 0.00 | 0.00 | 1009.1 | |
| 20260506033258 | 54 | 0 | 4.0 | 11.0 | 0.00 | 0.00 | 0.00 | 1009.3 | |
| 20260506030845 | 52 | 0 | 4.0 | 10.0 | 0.00 | 0.00 | 0.00 | 1009.3 | |
| 20260506015000 | 56 | 0 | 2.0 | 7.0 | 0.00 | 0.00 | 0.00 | 1009.9 |